KC3JUG-3 Weather Reports


time (UTC)temp
C
wind
direction
speed
KPH
gust
KPH
rain 1hr
cm
rain 24hr
cm
rain mn
cm
humidity
%
barometer
mb
20260507000546 17 255 1.6 4.8 0.00 0.43 0.43 90 1009.9
20260507000054 17 255 0.0 4.8 0.00 0.43 0.43 90 1009.7
20260506235546 17 255 1.6 4.8 0.00 0.43 0.43 90 1009.8
20260506235046 17 255 1.6 4.8 0.00 0.43 0.43 90 1009.7
20260506234604 17 255 1.6 4.8 0.00 0.43 0.43 90 1009.8
20260506234045 17 255 1.6 4.8 0.00 0.43 0.43 89 1009.7
20260506233547 17 0 1.6 9.7 0.00 0.43 0.43 89 1009.7
20260506233055 17 259 1.6 9.7 0.00 0.43 0.43 89 1009.8
20260506232546 17 253 3.2 9.7 0.00 0.43 0.43 89 1009.7
20260506232048 17 256 3.2 9.7 0.00 0.43 0.43 89 1009.6
20260506231554 17 251 1.6 6.4 0.00 0.43 0.43 89 1009.7
20260506231047 17 250 3.2 9.7 0.00 0.43 0.43 89 1009.7
20260506230547 18 254 3.2 9.7 0.00 0.43 0.43 89 1009.7
20260506230050 18 256 1.6 6.4 0.00 0.43 0.43 89 1009.6
20260506225547 18 256 1.6 6.4 0.00 0.43 0.43 89 1009.6
20260506225046 18 251 1.6 6.4 0.00 0.43 0.43 88 1009.5
20260506224554 18 249 1.6 6.4 0.00 0.43 0.43 88 1009.6
20260506224045 18 247 1.6 11.3 0.00 0.43 0.43 88 1009.7
20260506223545 18 254 3.2 11.3 0.00 0.43 0.43 88 1009.8
20260506223053 18 235 3.2 8.0 0.00 0.43 0.43 88 1009.7
20260506222547 18 256 1.6 12.9 0.00 0.43 0.43 88 1009.6
20260506222047 18 253 3.2 12.9 0.00 0.43 0.43 88 1009.3
20260506221551 18 250 1.6 6.4 0.00 0.43 0.43 88 1009.4
20260506221050 18 215 1.6 12.9 0.00 0.43 0.43 88 1009.4
20260506220547 18 269 4.8 12.9 0.00 0.43 0.43 87 1009.5
20260506220053 18 252 3.2 11.3 0.00 0.43 0.43 87 1009.4
20260506215546 18 246 4.8 11.3 0.00 0.43 0.43 87 1009.5
20260506215048 18 254 3.2 11.3 0.00 0.43 0.43 87 1009.5
20260506214551 18 268 4.8 11.3 0.00 0.43 0.43 87 1009.5
20260506214045 18 225 3.2 9.7 0.00 0.43 0.43 87 1009.0
20260506213548 18 258 1.6 9.7 0.00 0.43 0.43 87 1009.2
20260506213055 18 256 3.2 9.7 0.00 0.43 0.43 88 1009.2
20260506212546 18 264 4.8 11.3 0.00 0.43 0.43 88 1009.2
20260506212046 18 257 3.2 11.3 0.00 0.43 0.43 88 1009.0
20260506211553 18 225 3.2 11.3 0.00 0.43 0.43 88 1008.9
20260506211048 18 264 4.8 11.3 0.00 0.43 0.43 88 1008.9
20260506210546 18 273 3.2 12.9 0.00 0.43 0.43 88 1008.8
20260506210050 17 214 4.8 12.9 0.00 0.43 0.43 88 1008.8
20260506205546 17 217 4.8 17.7 0.00 0.43 0.43 89 1008.9
20260506205047 17 267 4.8 17.7 0.00 0.43 0.43 89 1008.8
20260506204549 17 258 4.8 17.7 0.00 0.43 0.43 89 1008.7
20260506204046 17 238 3.2 11.3 0.00 0.43 0.43 89 1008.9
20260506203546 17 252 3.2 11.3 0.00 0.43 0.43 89 1008.8
20260506203047 17 236 6.4 14.5 0.00 0.43 0.43 89 1008.8
20260506202548 17 241 3.2 14.5 0.00 0.43 0.43 89 1008.9
20260506202046 17 252 6.4 14.5 0.00 0.43 0.43 88 1008.8
20260506201556 17 246 6.4 14.5 0.00 0.43 0.43 89 1008.7
20260506201046 17 284 3.2 14.5 0.00 0.43 0.43 89 1008.7
20260506200546 17 227 4.8 22.5 0.00 0.43 0.43 89 1008.8
20260506200052 17 265 8.0 22.5 0.00 0.43 0.43 88 1008.8
20260506195546 17 248 4.8 14.5 0.00 0.43 0.43 89 1008.8
20260506195047 17 202 4.8 14.5 0.00 0.43 0.43 89 1008.9
20260506194552 17 269 4.8 14.5 0.00 0.43 0.43 90 1008.8
20260506194048 17 266 6.4 16.1 0.00 0.43 0.43 91 1009.0
20260506193550 17 205 4.8 16.1 0.00 0.43 0.43 92 1009.0
20260506193050 17 231 6.4 17.7 0.00 0.43 0.43 92 1009.1
20260506192546 17 238 4.8 17.7 0.00 0.43 0.43 93 1009.0
20260506192048 17 217 4.8 12.9 0.00 0.43 0.43 94 1009.1
20260506191555 16 244 3.2 11.3 0.00 0.43 0.43 94 1009.0
20260506191046 16 266 3.2 11.3 0.00 0.43 0.43 94 1009.1
20260506190545 16 214 4.8 11.3 0.00 0.43 0.43 95 1009.1
20260506190055 16 271 4.8 12.9 0.00 0.43 0.43 96 1009.1
20260506185545 16 246 3.2 14.5 0.00 0.43 0.43 96 1009.1
20260506185045 16 280 4.8 14.5 0.00 0.43 0.43 97 1009.1
20260506184557 15 299 3.2 12.9 0.00 0.43 0.43 97 1009.3
20260506184045 15 217 4.8 12.9 0.00 0.43 0.43 97 1009.3
20260506183549 15 268 3.2 16.1 0.00 0.43 0.43 97 1009.4
20260506183052 15 212 6.4 16.1 0.00 0.43 0.43 96 1009.4
20260506182547 15 206 3.2 11.3 0.00 0.43 0.43 96 1009.6
20260506182047 15 205 4.8 11.3 0.00 0.43 0.43 97 1009.6
20260506181549 15 227 3.2 12.9 0.00 0.43 0.43 96 1009.7
20260506181047 15 196 4.8 16.1 0.00 0.43 0.43 96 1009.7
20260506180547 15 209 6.4 16.1 0.00 0.43 0.43 96 1009.8
20260506180049 15 192 4.8 11.3 0.00 0.43 0.43 96 1010.0
20260506175547 15 209 3.2 16.1 0.00 0.43 0.43 96 1009.9
20260506175045 15 194 4.8 16.1 0.00 0.43 0.43 96 1009.9
20260506174548 15 212 4.8 14.5 0.00 0.43 0.43 96 1009.8
20260506174046 15 200 4.8 16.1 0.00 0.43 0.43 96 1009.7
20260506173546 15 236 6.4 16.1 0.00 0.43 0.43 96 1009.8
20260506173124 15 201 6.4 16.1 0.00 0.43 0.43 96 1009.6
20260506172545 15 246 4.8 11.3 0.00 0.43 0.43 96 1009.6
20260506172047 15 220 4.8 12.9 0.03 0.43 0.43 96 1009.6
20260506171545 14 211 4.8 14.5 0.03 0.43 0.43 96 1009.6
20260506171045 14 191 4.8 14.5 0.03 0.43 0.43 96 1009.7
20260506170546 14 212 4.8 12.9 0.03 0.43 0.43 96 1009.7
20260506170056 14 205 4.8 19.3 0.03 0.43 0.43 96 1009.8
20260506165545 14 222 4.8 19.3 0.05 0.43 0.43 96 1009.9
20260506165047 14 225 4.8 12.9 0.05 0.43 0.43 96 1010.0
20260506164559 14 192 3.2 11.3 0.05 0.43 0.43 96 1009.9
20260506164045 15 208 4.8 12.9 0.05 0.43 0.43 95 1010.1
20260506163545 15 254 4.8 12.9 0.05 0.43 0.43 95 1010.0
20260506163104 15 217 4.8 11.3 0.08 0.43 0.43 96 1010.1
20260506162545 15 217 4.8 11.3 0.08 0.43 0.43 96 1009.8
20260506162047 15 198 4.8 11.3 0.08 0.41 0.41 96 1009.8
20260506161626 15 202 3.2 11.3 0.08 0.41 0.41 96 1009.8
20260506161045 15 203 4.8 9.7 0.10 0.41 0.41 96 1009.6
20260506160545 15 191 3.2 11.3 0.13 0.41 0.41 96 1009.6
20260506160103 14 198 4.8 11.3 0.18 0.41 0.41 95 1009.5
20260506155545 15 194 4.8 11.3 0.18 0.38 0.38 95 1009.6
20260506155045 15 191 3.2 9.7 0.20 0.38 0.38 95 1009.9
20260506154600 15 209 4.8 11.3 0.23 0.38 0.38 95 1010.4
20260506154046 15 187 4.8 11.3 0.25 0.38 0.38 95 1010.7
20260506153546 15 206 4.8 8.0 0.25 0.38 0.38 95 1010.7
20260506153058 15 251 3.2 9.7 0.25 0.36 0.36 95 1010.8
20260506152546 15 202 4.8 11.3 0.25 0.36 0.36 95 1010.8
20260506152046 15 196 4.8 11.3 0.23 0.33 0.33 95 1010.9
20260506151558 15 204 4.8 11.3 0.25 0.33 0.33 95 1011.0
20260506151045 15 200 4.8 9.7 0.23 0.30 0.30 95 1011.1
20260506150551 15 200 3.2 8.0 0.23 0.28 0.28 95 1011.1
20260506150057 15 188 3.2 11.3 0.18 0.23 0.23 94 1011.1
20260506145546 15 205 3.2 11.3 0.15 0.18 0.18 94 1010.9
20260506145048 15 191 3.2 8.0 0.15 0.18 0.18 94 1010.7
20260506144549 15 188 3.2 9.7 0.13 0.15 0.15 94 1010.9
20260506144045 15 242 4.8 9.7 0.13 0.13 0.13 94 1010.9
20260506143545 15 184 3.2 9.7 0.13 0.13 0.13 94 1010.8
20260506143051 15 229 3.2 8.0 0.10 0.10 0.10 94 1010.8
20260506142545 15 232 3.2 8.0 0.10 0.10 0.10 94 1010.8
20260506142045 15 190 1.6 6.4 0.10 0.10 0.10 94 1010.9
20260506141555 15 246 1.6 6.4 0.08 0.08 0.08 93 1010.9
20260506141046 15 198 3.2 6.4 0.08 0.08 0.08 93 1010.8
20260506140546 15 200 1.6 8.0 0.05 0.05 0.05 92 1010.8
20260506140055 15 200 3.2 9.7 0.05 0.05 0.05 92 1010.8
20260506135546 15 202 4.8 9.7 0.03 0.03 0.03 92 1010.9
20260506135045 15 202 3.2 8.0 0.03 0.03 0.03 92 1010.8
20260506134553 15 202 3.2 8.0 0.00 0.00 0.00 91 1010.8
20260506134045 15 200 3.2 9.7 0.00 0.00 0.00 91 1010.9
20260506133545 15 198 4.8 9.7 0.00 0.00 0.00 91 1010.8
20260506133051 15 202 3.2 8.0 0.00 0.00 0.00 91 1010.9
20260506132545 15 202 3.2 8.0 0.00 0.00 0.00 91 1010.7
20260506132045 15 203 4.8 8.0 0.00 0.00 0.00 90 1010.8
20260506131557 15 200 3.2 8.0 0.00 0.00 0.00 90 1010.9
20260506131045 15 208 3.2 8.0 0.00 0.00 0.00 90 1011.1
20260506130545 15 202 3.2 8.0 0.00 0.00 0.00 90 1011.0
20260506130121 15 194 3.2 9.7 0.00 0.00 0.00 89 1011.1
20260506125545 15 217 4.8 9.7 0.00 0.00 0.00 89 1011.1
20260506125045 15 185 3.2 8.0 0.00 0.00 0.00 89 1011.1
20260506124557 15 211 3.2 8.0 0.00 0.00 0.00 89 1011.2
20260506124045 15 248 3.2 9.7 0.00 0.00 0.00 89 1011.2
20260506123545 16 205 3.2 9.7 0.00 0.00 0.00 88 1011.3
20260506123054 16 205 4.8 12.9 0.00 0.00 0.00 87 1011.3
20260506122548 16 222 4.8 12.9 0.00 0.00 0.00 87 1011.1
20260506122045 16 263 4.8 11.3 0.00 0.00 0.00 87 1011.0
20260506121553 16 258 4.8 11.3 0.00 0.00 0.00 86 1011.1
20260506121045 16 202 6.4 11.3 0.00 0.00 0.00 85 1011.0
20260506120547 16 196 4.8 9.7 0.00 0.00 0.00 84 1011.0
20260506120050 16 204 4.8 11.3 0.00 0.00 0.00 83 1010.8
20260506115544 16 203 4.8 19.3 0.00 0.00 0.00 83 1010.7
20260506115045 16 201 4.8 19.3 0.00 0.00 0.00 83 1010.7
20260506114551 16 198 6.4 12.9 0.00 0.00 0.00 83 1010.6
20260506114046 16 235 4.8 16.1 0.00 0.00 0.00 83 1010.7
20260506113545 16 238 6.4 16.1 0.00 0.00 0.00 83 1010.7
20260506113058 16 202 6.4 16.1 0.00 0.00 0.00 82 1010.6
20260506112546 16 205 4.8 11.3 0.00 0.00 0.00 83 1010.4
20260506112045 16 196 4.8 11.3 0.00 0.00 0.00 82 1010.5
20260506111549 16 196 6.4 11.3 0.00 0.00 0.00 82 1010.4
20260506111048 16 173 4.8 14.5 0.00 0.00 0.00 83 1010.3
20260506110548 16 201 4.8 14.5 0.00 0.00 0.00 82 1010.3
20260506110057 16 192 6.4 14.5 0.00 0.00 0.00 82 1010.3
20260506105548 16 213 4.8 8.0 0.00 0.00 0.00 82 1010.3
20260506105050 16 215 4.8 12.9 0.00 0.00 0.00 82 1010.5
20260506104552 16 192 4.8 12.9 0.00 0.00 0.00 82 1010.4
20260506104048 16 201 4.8 11.3 0.00 0.00 0.00 82 1010.3
20260506103548 16 212 4.8 12.9 0.00 0.00 0.00 82 1010.2
20260506103056 16 187 4.8 12.9 0.00 0.00 0.00 82 1010.1
20260506102548 16 188 4.8 12.9 0.00 0.00 0.00 82 1010.2
20260506102047 16 204 6.4 12.9 0.00 0.00 0.00 81 1010.1
20260506101557 16 182 4.8 12.9 0.00 0.00 0.00 81 1010.1
20260506101047 17 188 4.8 12.9 0.00 0.00 0.00 81 1010.1
20260506100547 17 202 6.4 12.9 0.00 0.00 0.00 81 1010.1
20260506100104 17 204 6.4 11.3 0.00 0.00 0.00 81 1010.0
20260506095547 17 205 6.4 12.9 0.00 0.00 0.00 80 1009.9
20260506095050 17 208 4.8 12.9 0.00 0.00 0.00 80 1010.1
20260506094550 17 199 4.8 12.9 0.00 0.00 0.00 80 1010.1
20260506094049 17 200 6.4 11.3 0.00 0.00 0.00 80 1010.1
20260506093551 17 167 4.8 12.9 0.00 0.00 0.00 80 1010.0
20260506093049 17 200 4.8 12.9 0.00 0.00 0.00 80 1010.1
20260506092548 17 200 4.8 12.9 0.00 0.00 0.00 79 1010.1
20260506092048 17 205 4.8 12.9 0.00 0.00 0.00 79 1010.0
20260506091553 17 198 6.4 11.3 0.00 0.00 0.00 79 1010.2
20260506091047 17 194 4.8 14.5 0.00 0.00 0.00 78 1010.0
20260506090652 17 196 4.8 14.5 0.00 0.00 0.00 78 1010.1
20260506090052 17 198 4.8 11.3 0.00 0.00 0.00 78 1010.2
20260506085547 17 200 4.8 11.3 0.00 0.00 0.00 78 1010.2
20260506085049 17 190 4.8 11.3 0.00 0.00 0.00 78 1010.3
20260506084617 17 195 4.8 11.3 0.00 0.00 0.00 77 1010.3
20260506084047 17 200 4.8 11.3 0.00 0.00 0.00 77 1010.3
20260506083547 17 202 4.8 9.7 0.00 0.00 0.00 76 1010.2
20260506083048 17 196 4.8 12.9 0.00 0.00 0.00 76 1010.3
20260506082546 17 196 4.8 12.9 0.00 0.00 0.00 76 1010.3
20260506082047 17 194 4.8 9.7 0.00 0.00 0.00 76 1010.3
20260506081554 18 194 3.2 9.7 0.00 0.00 0.00 75 1010.4
20260506081047 18 194 3.2 9.7 0.00 0.00 0.00 75 1010.4
20260506080548 18 192 4.8 8.0 0.00 0.00 0.00 75 1010.3
20260506073051 18 198 3.2 9.7 0.00 0.00 0.00 73 1010.5
20260506072547 18 206 3.2 11.3 0.00 0.00 0.00 73 1010.5
20260506072047 18 202 3.2 11.3 0.00 0.00 0.00 72 1010.6
20260506071550 18 198 4.8 9.7 0.00 0.00 0.00 72 1010.6
20260506071048 18 199 4.8 8.0 0.00 0.00 0.00 72 1010.8
20260506070548 18 199 3.2 8.0 0.00 0.00 0.00 71 1010.8
20260506062047 18 202 4.8 8.0 0.00 0.00 0.00 68 1011.4
20260506061551 18 192 3.2 8.0 0.00 0.00 0.00 68 1011.4
20260506061047 18 197 3.2 9.7 0.00 0.00 0.00 68 1011.6
20260506060547 18 197 3.2 9.7 0.00 0.00 0.00 68 1011.5
20260506051046 18 215 3.2 9.7 0.00 0.00 0.00 66 1011.6
20260506050547 18 209 3.2 9.7 0.00 0.00 0.00 66 1011.7
20260506045047 18 209 3.2 11.3 0.00 0.00 0.00 66 1011.8
20260506044653 18 214 3.2 11.3 0.00 0.00 0.00 65 1011.7
20260506044051 18 232 4.8 11.3 0.00 0.00 0.00 65 1011.8
20260506043548 18 222 3.2 11.3 0.00 0.00 0.00 65 1011.8
20260506043047 18 207 4.8 11.3 0.00 0.00 0.00 65 1011.9
20260506042548 18 208 3.2 8.0 0.00 0.00 0.00 65 1011.8
20260506042047 18 210 3.2 8.0 0.00 0.00 0.00 65 1011.9
20260506041559 18 212 3.2 8.0 0.00 0.00 0.00 65 1011.8
20260506041047 18 200 3.2 8.0 0.00 0.00 0.00 65 1011.9
20260506040550 18 213 3.2 11.3 0.00 0.00 0.00 65 1011.9
20260506040050 18 245 3.2 11.3 0.00 0.00 0.00 65 1011.9
20260506035547 18 221 4.8 9.7 0.00 0.00 0.00 65 1011.9
20260506035047 18 223 3.2 8.0 0.00 0.00 0.00 65 1011.9
20260506034625 18 240 3.2 11.3 0.00 0.00 0.00 65 1011.7
20260506034047 18 202 3.2 11.3 0.00 0.00 0.00 65 1011.8
20260506033548 18 203 3.2 8.0 0.00 0.00 0.00 64 1011.7
20260506033057 18 193 3.2 8.0 0.00 0.00 0.00 65 1011.8
20260506032548 18 211 3.2 8.0 0.00 0.00 0.00 65 1011.8
20260506032047 18 209 3.2 8.0 0.00 0.00 0.00 64 1011.7
20260506031552 19 200 3.2 6.4 0.00 0.00 0.00 64 1011.7
20260506031047 19 207 3.2 6.4 0.00 0.00 0.00 63 1011.7
20260506030547 19 219 1.6 6.4 0.00 0.00 0.00 63 1011.7
20260506030048 19 235 3.2 6.4 0.00 0.00 0.00 63 1011.7
20260506025547 19 242 3.2 6.4 0.00 0.00 0.00 63 1011.7
20260506025050 19 242 1.6 6.4 0.00 0.00 0.00 62 1011.7
20260506024548 19 244 1.6 6.4 0.00 0.00 0.00 62 1011.7
20260506024047 19 212 3.2 6.4 0.00 0.00 0.00 62 1011.8
20260506023547 19 212 3.2 6.4 0.00 0.00 0.00 62 1011.8
20260506023106 20 207 3.2 6.4 0.00 0.00 0.00 61 1011.8
20260506022547 20 207 3.2 8.0 0.00 0.00 0.00 62 1011.8
20260506022048 20 207 3.2 8.0 0.00 0.00 0.00 61 1011.7
20260506021549 20 207 3.2 8.0 0.00 0.00 0.00 61 1011.9
20260506021047 20 216 3.2 6.4 0.00 0.00 0.00 61 1012.0
20260506020547 20 216 3.2 6.4 0.00 0.00 0.00 60 1011.9
20260506020053 20 216 3.2 6.4 0.00 0.00 0.00 60 1011.8
20260506015547 20 216 3.2 6.4 0.00 0.00 0.00 60 1011.8
20260506015048 20 216 3.2 6.4 0.00 0.00 0.00 60 1011.8
20260506014553 20 216 3.2 6.4 0.00 0.00 0.00 59 1011.8
20260506014046 20 216 1.6 6.4 0.00 0.00 0.00 59 1011.6
20260506013547 20 216 1.6 6.4 0.00 0.00 0.00 58 1011.6
20260506013046 20 216 1.6 6.4 0.00 0.00 0.00 58 1011.6
20260506012547 20 216 1.6 6.4 0.00 0.00 0.00 58 1011.7
20260506012048 21 216 1.6 6.4 0.00 0.00 0.00 57 1011.7
20260506011603 21 219 3.2 6.4 0.00 0.00 0.00 57 1011.5
20260506011048 21 215 1.6 6.4 0.00 0.00 0.00 57 1011.4
20260506010548 21 216 3.2 6.4 0.00 0.00 0.00 56 1011.3
20260506010100 21 236 3.2 6.4 0.00 0.00 0.00 56 1011.2
20260506005547 21 247 1.6 6.4 0.00 0.00 0.00 56 1011.2
20260506005046 21 218 3.2 4.8 0.00 0.00 0.00 55 1011.1
20260506004611 21 218 1.6 4.8 0.00 0.00 0.00 55 1011.0
20260506004048 21 230 1.6 4.8 0.00 0.00 0.00 55 1011.0
20260506003548 21 230 0.0 3.2 0.00 0.00 0.00 54 1011.1
20260506003107 21 0 1.6 4.8 0.00 0.00 0.00 54 1011.0
20260506002547 21 230 1.6 4.8 0.00 0.00 0.00 53 1010.9
20260506002048 21 230 1.6 3.2 0.00 0.00 0.00 53 1011.0
20260506001555 22 230 1.6 4.8 0.00 0.00 0.00 52 1010.9
20260506001047 22 230 1.6 6.4 0.00 0.00 0.00 52 1010.8